Wind_Speed
14 16 17 15 15 15 14 15 15 17 17 16 15 13 12 13 15 18 19 19 20 20 20 20 20 20 21 21 22 22 20 16 14 19 22 19 15 10 8 5 4 5 5 6 6 7 8 7 6 8 8 9 11 10 9 10 7 4 4 5 3 2 2 3 5 5 6 3 1 6 13 17 9 12 17 12 16 20 18 16 15 12 12 11 10 12 10 9
14 15 15 13 13 14 15 15 15 16 16 14 13 12 11 12 13 15 16 17 17 17 18 18 18 17 16 17 18 20 20 19 20 25 23 15 11 9 5 2 3 5 5 7 8 9 10 11 11 10 11 14 14 10 9 11 11 7 3 5 3 4 4 4 5 6 6 7 6 8 12 13 9 14 12 5 11 18 17 14 14 14 14 12 12 12 9 8
14 14 13 12 12 12 14 15 16 16 16 14 13 13 12 12 12 12 12 14 15 15 15 14 14 11 9 10 11 14 15 18 22 24 19 14 14 12 6 3 4 6 7 9 9 9 9 12 11 9 15 18 14 12 11 9 9 6 5 5 2 6 5 3 6 10 11 12 11 9 9 9 9 13 11 11 12 10 11 12 11 13 15 14 12 11 7 5
13 13 13 12 11 11 13 15 16 17 16 14 12 12 11 10 9 9 8 10 13 14 13 11 8 4 2 2 4 6 8 13 20 20 15 14 15 13 10 6 4 6 8 10 10 9 10 12 10 10 16 15 14 15 12 7 5 3 3 5 7 9 5 4 10 14 13 10 10 10 9 10 9 10 14 18 11 2 11 12 7 10 15 13 11 8 4 2
11 12 12 11 11 11 14 16 17 16 15 12 10 9 9 9 8 7 5 5 11 15 13 9 4 3 4 5 3 1 2 5 12 15 13 14 15 14 12 9 5 4 7 10 8 8 9 10 9 12 14 9 10 10 8 9 10 5 3 11 15 11 5 7 13 12 11 11 11 12 8 8 8 8 14 14 4 4 12 11 7 9 11 10 8 5 1 4
10 11 12 11 11 12 15 16 16 15 14 12 10 9 9 10 10 9 8 9 11 14 12 8 3 6 4 2 4 5 1 4 7 13 13 12 13 13 13 11 8 3 4 7 6 6 7 6 7 11 9 6 7 6 5 6 9 5 3 11 14 11 9 10 12 10 10 11 11 10 8 10 9 7 8 8 3 8 11 10 10 10 10 8 5 3 1 6
9 10 11 11 12 13 15 15 15 15 14 13 11 9 10 12 15 16 15 16 17 16 14 11 13 18 18 14 10 11 15 12 9 12 11 11 11 12 12 11 9 3 5 7 6 7 7 9 13 14 9 6 6 6 8 10 11 9 4 8 11 13 15 12 12 11 9 10 9 11 11 11 9 6 6 7 8 11 12 12 12 11 10 8 6 3 2 7
9 10 11 11 11 13 15 15 15 15 13 13 12 10 10 13 17 16 15 15 17 17 13 10 10 12 14 14 16 21 21 14 11 11 10 10 10 11 11 11 10 4 6 7 8 8 8 14 16 12 7 4 4 4 8 12 11 7 4 9 11 12 16 14 12 10 10 12 12 12 11 7 8 8 8 11 13 13 14 14 12 11 10 8 6 3 3 7
9 10 11 10 11 13 15 15 15 15 14 13 12 11 10 12 15 14 11 10 10 10 6 5 4 4 5 3 9 18 15 11 12 11 10 10 12 13 12 14 13 8 9 9 8 7 7 12 10 8 9 6 7 5 5 6 4 3 8 11 10 11 15 15 12 11 11 14 13 8 8 9 12 8 7 12 15 15 15 14 12 11 10 9 7 5 5 7
10 10 10 10 11 13 14 14 15 16 15 13 12 11 12 12 13 12 9 6 5 4 2 3 3 1 1 5 9 11 8 10 11 9 11 12 13 15 16 17 16 13 13 11 11 11 11 13 12 14 15 10 10 7 5 5 3 7 13 12 12 11 11 10 11 13 11 10 7 4 8 13 12 3 3 14 17 16 16 15 13 12 11 9 9 9 8 7
11 11 11 10 11 13 12 13 15 15 13 11 12 13 13 13 13 12 11 9 9 9 9 10 8 6 8 14 20 13 6 10 10 10 12 12 14 17 18 19 19 19 18 15 13 12 12 15 15 13 10 9 10 8 8 5 3 9 15 11 7 5 5 5 9 11 6 4 4 8 10 8 5 2 6 18 20 18 17 15 14 13 12 12 12 11 10 8
12 11 10 9 11 12 12 13 13 11 9 9 10 11 13 12 12 13 12 10 11 11 11 12 10 8 10 19 25 14 7 10 10 11 12 13 16 16 17 17 19 21 20 20 15 9 9 10 8 6 6 8 6 4 6 4 4 10 12 7 3 5 3 4 4 3 1 2 8 10 6 1 5 4 7 19 22 20 18 16 16 15 15 15 14 13 11 9
12 10 9 9 10 11 11 11 10 7 6 6 7 9 9 8 8 8 8 9 10 9 7 6 5 3 4 14 18 10 7 9 9 10 12 14 16 16 16 15 16 19 20 22 18 9 8 6 6 10 12 7 4 4 6 7 8 7 5 4 3 7 2 6 8 2 2 5 12 6 3 5 6 5 10 22 24 22 20 18 18 17 17 17 15 14 12 11
11 10 9 9 10 11 11 9 7 4 3 4 7 7 7 6 7 8 10 10 7 6 7 8 7 5 9 12 11 8 8 8 6 10 14 15 15 16 17 16 14 15 16 20 19 12 11 10 12 15 13 8 6 5 6 7 6 2 3 3 3 3 4 10 8 2 4 6 13 1 4 6 5 7 17 23 24 23 22 20 20 19 19 18 16 15 14 12
10 10 10 10 11 11 10 9 6 4 4 6 7 8 7 7 8 9 9 6 3 4 7 9 9 10 15 13 8 7 7 8 8 11 13 13 13 14 15 16 15 13 12 15 17 16 13 14 15 14 10 8 6 4 4 5 5 3 2 3 3 2 4 9 5 3 5 4 7 1 3 6 5 12 21 24 25 24 23 22 21 21 20 19 17 17 15 13
10 11 12 11 10 11 11 10 8 7 8 9 9 8 7 6 7 7 6 5 6 8 8 9 9 10 12 9 7 8 8 9 9 9 9 8 9 9 9 10 11 11 10 10 11 12 14 15 18 19 15 9 5 3 4 4 4 4 2 1 4 2 4 6 3 3 7 3 1 2 2 5 4 12 23 25 26 25 23 23 22 22 21 19 18 17 16 15
10 12 12 10 10 10 10 9 7 6 7 8 7 6 5 7 8 7 6 7 9 8 8 11 10 9 10 7 6 8 8 8 7 7 8 7 7 6 6 5 4 5 6 7 6 6 10 13 12 12 13 9 4 3 4 4 4 4 2 0 3 2 2 5 5 5 10 7 3 3 3 6 5 9 22 27 27 26 24 24 24 23 22 20 19 18 17 16
11 11 11 9 8 8 8 7 6 6 8 8 7 5 4 8 9 5 5 6 6 5 2 5 4 5 8 6 5 7 9 7 5 6 7 6 5 4 5 5 1 2 3 7 8 7 8 9 7 3 5 6 5 6 5 2 3 4 3 2 3 2 2 4 5 4 7 6 5 6 5 7 7 6 19 26 27 27 26 25 24 23 23 21 19 18 17 16
11 11 10 10 10 10 10 11 11 12 12 11 10 10 8 8 8 4 4 5 4 3 1 6 5 5 4 2 3 6 9 9 4 3 4 5 5 2 3 6 4 3 3 5 9 12 8 6 6 4 5 6 5 6 3 5 6 6 5 3 4 4 4 5 6 4 4 6 6 5 5 7 7 6 16 24 27 27 26 25 24 24 23 21 19 19 18 17
14 14 13 12 12 12 13 14 15 12 7 5 6 7 7 7 5 5 8 10 12 11 5 8 12 10 6 3 2 3 8 11 8 4 2 4 4 3 4 5 6 8 7 2 3 8 7 6 6 3 3 7 4 1 0 4 5 4 3 3 4 4 5 5 7 5 4 4 5 5 6 9 8 7 14 22 23 22 23 23 24 25 23 22 20 19 18 17
17 16 13 11 11 11 13 12 9 5 3 2 3 3 4 4 4 7 13 16 14 12 8 9 12 11 10 7 4 3 4 8 10 8 4 3 5 2 4 4 5 7 6 2 1 3 6 7 3 2 4 4 1 2 3 3 1 1 2 1 4 4 7 8 5 4 5 5 5 6 5 9 9 7 12 19 17 19 24 24 24 25 23 22 21 19 19 17
15 13 12 10 9 9 9 7 5 6 7 7 7 8 8 9 10 11 13 12 11 11 10 8 9 9 9 10 8 3 3 6 10 11 9 6 5 2 5 8 6 4 5 4 3 3 6 4 3 4 2 3 4 5 7 6 3 2 2 1 4 4 6 7 3 2 3 2 6 6 5 9 9 6 10 17 18 19 25 26 26 26 24 23 21 20 20 18
13 13 12 11 9 8 8 8 8 9 9 8 9 12 14 15 15 13 13 11 8 8 9 8 7 6 6 8 8 5 5 7 9 12 11 8 9 9 8 8 5 3 6 5 4 3 4 0 3 2 5 5 4 5 7 5 3 2 1 1 4 3 2 4 4 5 6 3 5 6 7 8 5 2 6 15 20 18 20 24 25 25 24 23 20 18 18 18
12 12 13 12 11 9 9 9 7 6 6 6 6 10 12 12 11 9 9 8 4 4 6 6 7 7 5 5 6 7 11 11 9 11 12 8 8 8 6 5 5 4 4 4 7 6 2 1 2 6 8 6 3 4 6 4 4 3 3 2 5 5 2 5 5 8 9 4 2 5 7 6 2 2 5 8 13 15 16 19 22 24 23 21 19 18 18 19
11 11 12 11 10 8 8 7 5 5 6 6 5 6 7 6 6 5 5 5 2 2 3 3 5 5 5 5 2 5 9 10 11 11 11 9 6 4 5 4 4 2 2 2 8 6 1 2 2 4 6 6 4 3 3 3 4 5 4 4 5 6 6 7 6 7 6 4 2 5 5 5 2 3 7 4 6 10 12 15 20 23 23 22 21 20 20 20
11 11 11 9 8 7 6 5 4 5 5 5 4 4 3 3 4 3 3 4 2 3 1 1 3 3 4 7 1 3 3 5 9 11 9 9 5 4 4 3 3 2 5 2 4 2 1 2 3 5 4 5 5 2 1 3 4 4 4 4 4 5 6 7 5 3 2 4 3 4 2 5 4 4 7 4 5 9 9 12 19 24 24 25 24 21 20 21
10 10 9 8 7 6 4 4 4 4 4 3 3 2 2 3 3 2 2 5 2 2 1 0 1 2 4 8 1 5 0 1 3 10 9 8 5 3 3 1 3 2 3 3 3 1 1 3 5 5 5 4 4 3 3 4 4 4 4 2 6 8 8 7 3 1 2 4 4 3 3 3 5 5 4 1 5 8 9 11 17 23 27 28 27 23 23 24
9 7 6 6 5 4 4 4 4 3 2 2 2 2 2 3 2 2 4 3 2 0 2 1 2 4 4 7 5 4 2 0 2 8 10 7 4 4 4 2 4 2 1 4 1 3 1 0 0 3 4 2 1 2 5 5 2 6 6 6 8 7 7 5 2 3 2 2 5 4 1 1 6 5 2 1 3 7 11 12 15 23 29 30 30 27 25 25
7 6 4 4 3 2 3 4 4 4 3 2 2 1 2 3 2 3 4 1 1 1 2 2 3 2 2 3 6 6 5 3 2 5 8 7 4 5 5 3 7 6 3 4 3 3 0 1 3 5 3 2 4 5 5 6 4 7 8 9 6 1 2 1 3 2 2 3 4 5 1 0 6 5 1 1 3 7 10 10 12 21 27 29 30 29 27 25
6 5 4 3 2 1 3 4 5 4 3 2 1 2 4 4 4 5 2 2 0 1 0 0 2 2 4 2 4 7 4 4 5 5 5 7 6 7 8 5 5 6 3 5 3 2 1 1 2 3 2 4 3 5 3 7 6 6 7 7 5 3 2 2 2 3 4 2 6 5 3 3 3 6 3 3 5 7 7 6 8 15 21 24 26 28 27 25
5 5 5 4 3 4 5 6 6 5 4 2 1 4 5 3 4 5 1 3 1 1 0 1 2 2 4 1 1 5 3 4 7 6 4 4 6 7 7 4 3 4 3 5 3 3 3 1 2 2 3 2 2 3 2 2 1 4 4 3 4 4 3 3 4 4 3 4 6 5 3 3 3 6 4 5 7 6 6 6 6 10 17 20 22 25 26 24
5 6 6 6 5 6 7 7 8 6 4 2 4 4 4 2 2 2 2 1 1 2 1 0 2 2 4 2 1 3 2 3 6 5 3 2 4 5 4 1 1 3 4 3 3 4 2 3 3 2 3 2 1 2 4 3 4 5 3 4 4 3 4 3 4 2 1 5 4 5 1 1 6 8 8 8 9 9 12 13 11 13 17 18 19 22 23 21
6 6 6 7 7 7 8 8 8 6 4 4 5 3 5 4 2 4 1 1 0 1 1 1 1 2 2 2 1 2 1 1 3 4 2 2 4 2 1 1 3 1 2 1 2 4 3 4 4 2 2 2 3 2 2 3 4 4 2 3 3 3 5 4 4 3 3 5 3 4 1 3 6 7 8 10 11 13 18 19 17 16 17 17 18 19 20 20
5 6 6 7 6 6 7 7 6 5 5 7 6 3 5 2 5 3 2 3 1 2 2 2 2 3 2 0 2 2 0 1 2 3 2 2 3 1 2 3 2 3 2 2 1 1 2 4 3 2 1 1 2 2 3 2 1 2 1 3 3 2 1 2 3 2 4 7 4 1 2 3 4 4 7 8 10 12 15 18 17 18 19 18 17 19 20 20
4 4 5 5 5 5 4 3 4 5 8 8 4 5 3 4 4 2 3 4 1 1 1 2 3 3 3 2 2 1 1 1 1 3 4 2 2 2 1 2 2 3 3 2 1 2 1 5 5 1 0 2 2 1 3 4 1 1 1 3 1 2 4 2 3 4 2 5 5 2 2 5 4 6 5 3 8 9 11 15 17 19 21 19 19 22 22 21
3 3 3 4 3 2 1 2 4 6 9 8 5 3 5 4 2 3 3 2 3 3 2 2 3 2 2 3 2 2 0 1 1 2 2 0 2 2 2 2 2 2 3 3 1 1 1 5 4 2 1 2 3 1 2 2 1 0 2 0 2 2 5 3 2 2 3 2 4 2 4 5 4 7 5 4 6 8 8 12 16 21 22 20 23 26 24 22
2 1 1 2 2 2 2 3 5 8 8 6 4 2 5 2 1 3 2 2 2 3 5 2 1 2 2 2 2 2 0 1 1 1 1 1 1 3 3 2 3 3 3 3 2 2 1 4 4 1 1 1 2 3 3 3 1 2 0 3 1 2 4 3 1 4 4 1 4 2 6 7 4 4 5 4 6 9 8 10 14 19 20 22 27 28 25 25
2 1 0 1 2 3 4 4 6 8 5 4 1 3 3 2 2 2 2 2 2 3 4 3 2 1 3 2 3 3 2 1 1 1 2 1 1 4 5 2 3 3 3 1 1 1 2 2 5 1 1 2 1 3 2 4 3 3 3 3 3 1 1 1 1 2 2 3 5 4 6 6 3 4 5 5 7 9 9 8 9 14 19 24 28 27 27 26
1 1 1 2 1 4 5 5 7 8 4 3 2 3 1 2 2 2 3 2 2 3 2 3 1 1 3 3 3 3 3 3 2 1 2 2 2 3 5 3 2 3 3 2 2 1 3 1 4 2 1 2 2 1 2 1 2 3 3 2 2 2 3 1 1 1 1 3 4 5 6 5 5 6 5 8 10 8 8 7 7 14 20 23 25 26 26 26
1 1 1 1 2 5 5 6 7 6 3 1 4 3 0 1 2 3 4 3 2 2 2 2 1 1 3 3 2 2 2 3 3 2 2 2 1 3 4 3 4 3 2 1 2 1 2 2 3 4 3 2 1 2 5 5 3 2 2 0 1 0 1 0 0 3 3 1 2 3 6 9 7 5 7 11 10 7 8 8 9 16 21 22 23 25 25 25
2 1 0 1 4 5 6 6 4 4 3 1 2 1 0 1 2 3 4 3 2 1 2 2 3 3 3 2 2 2 2 2 3 2 2 2 1 1 3 5 7 6 2 2 1 1 1 2 3 4 3 2 3 3 4 6 6 5 4 3 3 2 2 1 3 2 2 3 4 2 5 12 8 3 6 9 7 7 10 11 12 17 21 22 23 24 24 24
3 1 1 2 4 6 6 4 4 4 3 2 1 1 0 1 2 3 4 4 2 1 2 2 2 3 3 3 2 3 3 1 2 2 2 3 2 1 3 7 8 8 5 2 1 2 2 3 1 4 5 3 3 1 3 3 4 5 3 3 4 4 5 3 3 3 1 2 2 4 2 11 6 4 5 7 7 11 15 15 16 20 23 23 24 24 23 24
3 2 1 2 5 7 4 2 3 3 1 1 1 1 1 2 2 2 3 3 2 1 1 1 2 2 2 2 2 3 3 2 3 3 2 2 1 1 5 7 7 7 4 1 1 2 2 2 1 5 5 2 1 1 2 3 3 3 2 3 4 3 4 5 5 3 2 3 3 3 3 10 6 3 4 7 10 13 17 17 19 22 25 25 25 25 25 24
2 2 2 2 6 7 3 1 1 1 2 1 1 1 1 1 2 3 2 3 2 2 1 1 1 2 1 1 2 2 2 2 2 2 2 2 1 2 5 6 6 5 3 1 3 4 2 1 1 3 6 5 3 3 4 4 1 2 3 3 4 4 6 4 2 3 1 5 7 4 5 10 7 0 1 6 8 11 17 20 21 23 27 27 27 27 27 26
2 2 1 1 4 6 3 2 4 3 1 1 1 1 2 1 2 3 3 3 3 3 1 1 1 2 1 2 2 1 1 1 1 0 1 1 1 2 5 5 4 4 3 3 6 6 3 2 2 2 2 4 4 4 4 2 2 2 2 4 4 6 8 5 2 3 3 4 6 6 7 12 13 9 8 9 8 10 17 21 21 24 28 29 30 31 29 28
2 1 0 1 2 4 3 2 3 4 4 3 0 2 2 1 2 3 3 3 3 4 3 1 2 2 1 1 2 1 1 0 1 1 1 2 2 1 3 4 3 3 5 6 6 4 2 1 3 5 6 7 7 7 2 2 2 5 4 6 6 6 7 6 4 4 5 3 4 10 12 15 21 19 15 15 13 12 15 18 21 25 29 31 32 31 30 29
1 0 1 1 0 2 2 2 3 3 4 5 2 1 4 2 1 2 3 2 3 5 3 1 2 3 2 3 2 2 2 0 1 1 2 3 2 1 1 3 3 4 6 6 4 3 4 2 5 6 10 11 9 10 6 3 6 10 9 7 8 8 8 8 7 8 5 3 6 12 10 10 19 20 17 19 18 14 15 19 25 29 31 33 32 30 29 29
1 1 2 1 1 1 1 1 3 3 4 4 2 1 3 3 1 3 3 1 2 5 3 1 3 5 5 5 3 2 1 1 1 3 2 2 1 2 1 1 2 4 5 4 3 4 4 3 5 4 8 11 9 12 11 7 8 10 10 10 9 9 11 14 16 11 7 6 14 13 7 10 19 21 19 21 21 20 23 28 31 33 35 34 32 30 30 31
1 1 2 2 2 1 2 1 3 5 4 2 1 1 4 5 5 4 2 2 1 3 4 3 5 6 6 4 3 3 3 1 2 3 3 3 2 2 1 2 2 4 4 3 1 2 3 3 4 2 6 11 9 11 10 6 6 9 12 13 11 11 14 16 18 13 9 14 20 19 18 19 21 22 21 27 33 33 33 34 33 34 36 34 31 31 32 34
2 1 2 3 2 2 3 2 4 5 2 1 1 2 4 6 6 4 3 4 2 2 4 5 6 5 5 5 5 4 6 5 2 3 4 5 2 3 3 3 3 3 2 2 0 1 3 3 2 3 4 10 6 4 4 4 6 11 16 14 9 10 11 13 13 10 8 15 19 18 17 18 21 23 23 31 38 32 28 30 29 33 35 33 31 33 34 36
5 3 2 2 2 2 3 3 4 4 1 1 3 3 3 5 7 5 3 4 5 4 6 7 5 2 3 4 6 6 6 6 3 3 5 5 3 4 4 4 7 6 3 3 1 2 3 2 2 5 3 6 1 5 8 8 8 11 17 17 9 7 7 8 7 7 9 11 12 9 9 12 17 17 16 23 27 23 24 28 28 31 34 30 30 34 36 38
6 6 5 3 1 1 3 3 3 2 2 3 4 5 4 5 7 8 3 3 4 4 5 7 5 4 3 3 7 7 4 4 2 2 3 4 4 4 3 5 9 8 6 5 1 1 4 2 1 3 2 6 3 6 9 10 8 7 9 8 7 6 6 5 5 9 11 8 5 5 9 13 14 14 14 16 18 18 24 29 28 31 34 33 33 36 39 40
Wind_Direction
101 95 88 86 85 90 102 109 111 110 109 107 105 102 104 109 111 115 118 121 122 120 116 112 108 102 95 89 80 75 72 78 85 80 73 54 39 29 19 9 44 88 103 111 123 112 90 79 102 99 87 78 65 58 58 55 42 55 83 78 106 131 135 164 181 160 129 172 145 109 127 125 129 123 115 98 90 100 102 103 114 127 130 131 140 155 178 199
103 98 96 95 93 93 98 109 116 114 110 108 104 103 107 114 119 122 124 127 128 126 123 118 112 104 94 86 78 74 67 68 75 69 62 54 44 38 31 25 69 102 113 128 131 110 93 90 106 103 84 73 61 63 67 54 48 59 105 89 146 188 167 167 155 149 134 146 140 108 126 129 138 153 148 121 109 112 105 108 125 129 134 144 155 170 194 213
107 105 107 104 99 98 100 107 115 115 110 106 101 100 102 108 119 127 134 139 140 136 133 129 119 108 95 86 77 72 61 56 61 54 48 50 46 40 41 53 89 104 118 136 124 100 103 103 103 94 82 72 58 67 69 53 45 51 95 80 200 181 149 158 123 132 141 139 132 114 115 107 129 161 159 148 140 125 129 137 140 145 152 160 169 183 206 234
110 108 111 108 100 101 107 107 111 113 109 104 98 95 99 106 115 122 135 151 157 153 146 142 136 120 99 74 68 74 56 43 40 33 35 47 44 41 43 50 87 101 114 127 117 103 111 108 102 86 82 73 60 67 54 40 64 52 96 127 175 159 122 126 122 123 131 129 124 122 112 99 122 162 154 142 129 168 181 164 155 163 165 171 180 191 216 300
109 110 110 105 95 101 112 111 110 111 106 101 94 93 104 112 108 106 116 144 164 167 160 160 187 273 270 260 250 269 347 25 20 24 38 47 45 43 42 43 57 92 125 135 129 114 117 113 101 84 79 71 57 63 49 67 98 64 69 145 154 151 116 124 125 117 124 124 126 131 125 124 130 138 155 159 147 199 188 178 173 167 167 172 178 188 215 5
112 115 109 97 89 101 116 116 112 108 103 97 92 93 109 118 106 99 109 116 141 163 168 164 106 54 60 171 216 243 126 89 18 28 42 46 47 47 42 38 31 25 159 163 163 134 128 117 94 84 75 67 58 65 64 79 116 97 79 140 148 145 127 132 126 112 125 125 128 144 152 151 134 107 152 178 166 158 164 171 171 166 171 176 182 196 341 357
117 120 109 95 90 104 119 120 113 107 100 93 89 87 104 124 115 105 109 110 120 138 147 131 91 75 78 89 110 109 91 79 41 39 45 46 52 52 46 40 29 4 181 162 149 129 113 101 101 95 80 78 77 70 71 77 105 110 117 137 133 129 129 135 126 115 117 115 129 149 152 152 139 121 140 138 137 153 159 168 172 172 179 185 200 216 335 343
118 123 114 104 100 108 119 120 114 107 99 89 84 78 96 129 131 122 116 115 120 126 131 120 97 90 93 94 92 82 68 51 45 51 50 54 61 58 52 45 40 59 139 125 118 117 100 102 107 93 73 76 99 102 92 84 82 86 127 135 123 124 132 131 121 122 112 114 135 140 135 147 153 150 139 138 148 158 163 170 176 178 184 196 213 240 319 330
122 124 119 112 112 115 117 117 112 106 99 87 79 79 94 125 144 150 141 135 134 132 136 118 107 109 114 133 83 66 46 37 52 58 62 68 64 61 61 54 47 58 91 99 106 113 110 114 116 102 104 100 93 102 106 92 61 108 143 143 133 126 132 131 123 126 121 130 141 116 101 128 143 138 133 155 162 166 172 178 184 188 194 205 224 252 283 310
125 125 123 119 120 123 119 116 114 106 99 87 81 88 98 115 138 156 160 163 155 150 165 145 169 90 152 179 108 72 36 47 63 72 75 78 75 72 72 64 58 61 78 95 103 99 101 112 116 107 104 91 81 69 64 92 73 123 142 139 132 129 131 136 137 136 130 138 144 103 125 143 143 126 185 178 174 177 182 185 191 199 206 219 233 246 259 289
126 124 124 122 124 129 123 121 120 110 98 89 89 96 99 105 120 132 136 128 112 103 102 110 112 96 114 111 93 83 54 61 75 84 84 91 88 77 73 69 66 64 70 84 96 102 104 114 116 103 95 90 90 65 53 67 55 119 133 123 109 116 127 125 139 152 137 122 140 127 134 152 164 271 219 186 182 187 190 190 197 206 217 228 236 241 252 284
127 124 122 122 126 131 129 129 129 115 97 90 99 111 109 106 115 123 124 119 111 105 110 122 121 104 97 80 74 74 64 64 77 86 94 99 85 74 70 67 67 64 63 67 73 101 125 137 140 107 117 121 107 59 56 69 88 113 122 119 14 9 83 43 44 167 112 130 163 131 109 246 226 257 217 185 182 189 195 197 202 212 222 229 235 240 253 286
130 125 121 123 128 134 132 132 135 123 97 90 106 126 128 121 127 141 139 123 109 101 110 139 158 168 88 66 62 68 61 54 72 92 103 100 86 79 73 65 67 65 62 62 59 75 110 143 166 118 112 115 104 89 86 83 87 93 80 98 10 6 0 342 354 285 16 162 175 132 10 276 244 236 189 180 183 188 197 203 208 215 222 228 233 242 258 283
133 127 121 122 129 136 133 131 138 129 101 103 110 123 135 134 137 152 149 133 111 91 91 96 106 117 101 85 68 70 64 51 78 109 105 98 89 81 75 68 65 65 66 67 65 73 98 122 128 105 90 84 102 102 70 49 54 57 14 47 49 29 294 322 344 338 24 182 189 149 308 263 266 216 180 182 189 191 197 203 210 216 221 229 234 244 260 282
136 127 117 118 124 132 131 127 127 121 126 122 115 116 118 122 135 149 154 155 136 95 95 97 102 100 93 87 77 78 76 73 100 120 110 98 88 78 72 66 61 62 65 71 74 78 94 114 102 78 63 65 82 80 38 11 10 30 30 335 345 53 283 316 352 66 47 202 204 21 283 266 266 205 186 188 194 197 203 206 210 217 222 229 236 246 260 282
136 125 119 120 123 129 129 121 111 113 127 127 118 115 111 117 133 145 155 148 116 102 93 93 100 94 85 81 79 78 78 82 88 107 112 102 91 77 70 67 58 52 51 65 78 77 78 89 77 56 48 49 45 68 55 12 349 9 75 247 290 324 310 319 346 49 38 20 289 28 253 273 279 202 192 192 198 202 206 209 212 219 224 230 239 249 260 276
133 125 123 124 129 136 134 127 124 121 129 136 133 124 119 127 127 123 131 126 114 108 83 83 94 78 70 80 78 61 57 68 80 102 107 99 86 69 68 75 71 51 39 49 65 69 62 68 73 55 48 46 20 71 69 7 331 331 24 95 267 267 314 319 310 346 19 24 339 333 249 259 283 203 193 196 201 204 208 213 215 220 226 232 241 250 259 270
130 125 125 128 136 140 136 139 146 136 127 125 122 118 131 154 157 138 129 138 131 139 75 54 93 79 61 67 65 47 44 54 88 113 109 102 82 63 61 49 96 182 30 36 37 40 50 55 77 78 39 35 17 56 77 318 277 278 303 322 303 290 278 295 291 320 10 6 320 317 286 267 289 220 199 200 202 206 212 217 220 223 227 233 241 249 258 266
129 124 125 128 133 131 130 132 127 122 115 105 100 99 113 145 164 159 152 160 107 107 317 10 52 106 101 73 71 62 53 52 58 109 137 121 83 68 72 51 75 137 59 37 24 29 51 58 58 52 11 355 358 62 102 226 221 237 254 249 276 291 274 267 270 278 5 335 294 281 274 274 283 236 207 205 205 210 218 220 223 225 228 234 241 248 255 263
120 118 121 125 130 131 132 130 122 117 102 88 100 104 119 124 104 82 97 99 78 77 88 58 68 94 102 85 110 89 63 55 52 68 152 155 127 109 88 75 81 73 49 34 8 25 61 66 44 44 322 312 304 87 153 232 209 216 219 235 269 283 283 276 265 273 12 348 271 238 266 277 269 242 212 206 206 213 219 220 222 225 230 235 240 248 253 262
114 115 122 127 135 140 139 135 123 109 51 63 146 159 179 163 115 101 93 82 74 76 81 79 79 83 78 60 61 113 90 69 64 68 78 143 169 148 53 64 72 49 11 357 86 28 66 75 45 256 242 267 275 108 38 24 111 189 159 241 308 297 288 292 269 277 24 24 274 258 275 276 265 245 214 202 203 216 217 217 222 226 231 236 241 248 252 260
114 119 127 132 139 145 149 148 119 91 75 88 113 113 120 124 119 119 107 92 83 78 72 80 85 78 70 53 47 87 125 74 57 57 64 84 114 110 67 68 71 41 343 15 78 22 48 79 256 266 201 127 72 61 50 41 50 35 63 36 318 290 296 307 280 272 21 28 283 297 303 277 264 240 215 203 205 219 219 220 226 229 232 236 240 247 252 260
117 123 126 126 122 123 129 129 115 95 82 90 106 106 105 108 108 107 108 106 94 76 66 71 74 62 57 44 41 63 87 60 32 32 42 63 79 79 82 74 68 42 359 25 99 79 62 132 263 30 72 86 45 29 45 36 32 24 8 0 295 292 340 307 301 325 322 275 256 297 300 284 276 232 228 218 216 225 229 229 234 236 237 238 241 250 256 259
118 122 125 122 113 110 112 116 115 95 87 97 111 115 112 109 111 109 101 98 93 70 58 54 47 43 44 33 36 59 68 59 30 21 30 49 77 73 80 83 68 56 16 47 87 92 105 265 356 49 54 72 61 16 47 40 354 310 229 225 288 298 282 251 287 328 318 296 253 314 309 295 304 234 254 234 223 235 238 234 235 234 235 238 243 253 256 256
118 121 124 121 112 107 106 111 113 97 89 98 118 128 125 122 121 114 87 77 58 2 31 31 20 24 25 9 17 72 63 57 39 24 28 45 71 87 91 91 71 95 226 80 80 89 118 301 351 49 40 53 72 29 52 77 354 321 238 215 264 282 271 266 307 339 337 334 346 21 349 297 307 246 251 241 223 240 236 231 232 231 232 236 244 254 254 255
124 123 121 116 110 104 102 101 100 93 82 95 123 123 126 146 130 128 91 62 352 301 352 24 7 6 1 357 308 152 53 38 36 25 31 41 49 116 111 67 60 149 208 192 87 124 173 29 71 94 63 41 51 22 256 115 45 328 239 205 251 272 275 283 313 358 347 293 292 69 90 272 299 261 253 235 222 243 241 237 239 236 235 237 244 252 253 254
133 128 121 113 101 94 92 79 85 91 77 88 116 118 145 144 121 147 81 40 336 266 63 265 346 17 13 10 19 170 45 334 43 19 23 33 25 114 134 21 62 104 185 139 53 295 200 43 47 70 65 49 44 352 247 132 79 278 258 343 318 300 294 289 290 198 226 278 310 46 123 257 289 268 273 243 226 252 253 249 248 242 241 241 244 249 251 255
144 138 127 119 104 83 65 50 54 56 41 55 90 113 148 145 147 135 96 60 295 180 65 164 124 66 44 38 58 114 87 157 108 10 12 28 27 81 104 130 133 114 74 113 50 292 200 180 233 108 68 49 88 259 222 141 125 258 277 319 304 286 278 269 200 199 241 352 323 315 110 250 274 269 347 44 225 259 255 245 246 243 243 243 244 247 250 254
161 160 150 146 128 64 24 21 14 6 358 11 58 93 116 137 162 82 81 116 281 93 95 153 143 56 4 38 39 53 60 48 54 6 13 40 47 80 95 117 135 121 56 90 162 233 130 231 199 137 111 234 227 245 212 157 203 275 307 312 301 292 260 201 133 157 47 32 268 260 112 42 280 268 317 49 234 251 251 244 243 243 245 246 247 248 248 252
184 190 196 197 190 309 324 351 351 344 341 336 29 111 113 114 104 66 49 240 301 105 180 0 216 297 351 14 10 20 46 37 16 6 27 58 64 80 102 113 115 118 45 38 94 223 333 5 212 145 182 228 247 279 232 180 229 311 348 324 326 16 46 81 90 93 67 334 253 222 136 104 302 276 222 200 222 215 223 244 247 244 246 246 245 245 245 250
208 215 231 242 249 287 304 323 326 323 321 289 168 130 125 90 76 90 214 235 96 297 280 10 298 355 28 95 0 356 15 15 6 15 26 39 41 44 70 89 55 58 12 4 14 310 343 3 258 246 234 247 7 331 322 176 237 8 16 337 342 348 17 29 357 39 70 284 252 198 159 145 239 268 241 225 233 209 203 229 234 233 238 241 244 245 244 250
235 238 250 264 270 287 297 305 307 300 288 234 170 155 134 56 24 171 237 316 28 284 199 42 321 48 46 48 49 330 341 8 7 38 60 37 36 24 32 131 134 37 3 324 331 336 315 248 280 301 253 236 69 7 347 359 27 30 13 14 21 351 4 9 332 2 223 260 219 174 190 242 229 254 261 254 249 230 219 221 227 232 236 244 249 246 244 251
251 255 263 271 276 287 291 295 295 274 243 186 171 158 92 80 245 220 230 345 344 299 76 86 21 85 72 24 354 304 320 0 353 32 80 87 68 31 329 144 143 78 343 258 339 352 335 293 306 329 258 212 125 86 344 323 1 12 9 52 64 30 8 335 306 323 287 273 219 156 126 276 272 273 252 246 249 240 233 231 236 242 245 254 255 245 243 255
253 261 265 270 277 285 293 293 274 229 194 171 162 106 80 137 232 210 231 251 242 8 35 78 46 48 57 79 269 287 69 326 346 29 17 42 62 32 306 334 41 77 89 98 47 52 27 309 266 187 230 177 135 147 160 152 11 305 195 117 107 117 104 275 268 281 298 297 289 72 120 220 276 280 220 230 260 257 242 236 239 245 249 256 252 241 246 260
241 254 259 270 281 286 302 285 231 187 173 168 121 72 125 220 241 187 221 234 200 10 9 48 66 56 6 310 298 320 155 283 7 54 25 40 129 164 204 295 347 79 105 86 304 161 129 275 251 203 0 136 131 183 137 105 61 271 142 92 60 178 157 172 221 212 278 316 298 280 217 213 243 270 251 269 286 268 243 238 239 244 247 247 242 242 251 263
216 240 261 277 281 276 294 234 190 166 171 161 83 70 194 227 234 179 191 149 140 156 130 44 66 95 307 297 320 353 123 253 15 57 8 63 169 182 180 234 242 139 135 131 198 152 57 279 272 32 7 106 106 177 134 99 212 67 65 122 236 164 125 110 282 302 56 351 286 280 278 287 309 295 312 7 306 276 254 246 243 245 246 241 241 247 255 264
175 201 275 282 265 236 207 193 165 165 173 142 96 202 213 224 193 178 148 101 135 132 122 144 207 170 230 255 270 292 318 285 325 100 225 235 188 179 177 232 222 201 189 143 186 190 140 282 290 69 229 328 91 128 89 57 115 98 138 216 175 86 84 97 308 345 39 274 275 298 285 296 331 308 319 347 286 269 259 248 247 250 247 240 244 252 260 267
108 98 353 317 258 212 192 174 162 168 159 102 112 241 211 190 204 174 147 129 127 93 109 184 223 185 193 203 241 233 157 202 243 139 186 232 231 170 152 189 220 229 246 116 124 180 116 298 300 349 198 289 70 118 28 13 63 111 162 163 98 66 336 44 17 338 0 300 289 288 281 279 231 240 284 286 255 256 257 246 246 250 242 240 248 258 265 270
70 107 51 2 201 188 176 161 166 168 132 88 221 247 198 197 223 165 166 160 123 108 149 213 223 85 177 178 202 200 170 199 198 155 184 197 234 186 154 165 186 211 244 142 144 192 104 122 285 314 310 310 17 120 244 299 57 82 103 80 41 138 175 185 114 164 220 288 295 308 314 292 225 210 239 259 255 253 254 247 240 243 242 246 255 264 269 270
226 143 78 38 152 168 167 156 156 147 105 134 206 208 233 223 205 169 171 171 151 146 197 217 165 146 203 192 191 182 170 199 180 167 214 198 216 214 182 167 156 170 226 95 123 143 83 136 254 301 330 322 281 213 196 181 156 111 92 351 323 94 142 202 157 150 152 185 243 308 311 285 259 204 214 251 264 251 239 242 243 245 250 258 265 269 272 271
220 165 138 156 143 155 159 143 111 91 101 147 199 183 312 202 168 170 178 182 196 193 182 177 164 179 189 183 213 194 148 184 184 174 224 205 191 234 195 172 161 156 136 73 102 165 130 161 220 291 312 263 240 229 180 173 165 152 172 190 181 157 124 45 302 279 120 160 189 161 294 281 273 182 211 246 258 248 239 236 242 252 260 268 271 272 274 274
204 170 190 170 157 161 150 113 49 55 112 144 180 161 172 152 142 157 180 187 207 189 150 155 169 173 167 169 197 175 142 180 203 192 222 206 193 208 174 165 166 159 136 114 228 199 138 118 160 268 264 243 252 336 102 148 150 137 167 178 141 133 130 136 239 257 191 198 185 116 263 273 262 158 202 238 240 252 250 238 242 258 268 271 273 276 276 277
186 169 177 175 175 170 141 68 7 17 62 146 148 126 144 164 151 148 180 196 201 188 164 190 187 186 199 184 162 166 172 194 193 190 214 211 199 180 161 159 166 159 132 113 231 168 118 86 63 275 281 324 6 0 51 60 94 136 205 161 143 153 144 154 180 186 200 213 170 115 246 269 273 171 208 244 250 258 255 245 247 261 271 274 275 280 281 280
158 146 156 167 188 187 167 157 185 262 298 335 46 80 163 207 187 169 198 216 198 171 163 208 201 196 204 123 121 175 198 201 202 194 185 180 175 162 160 163 170 167 162 193 169 157 178 173 79 327 321 344 3 342 343 357 88 206 233 170 150 119 104 115 131 97 277 220 168 152 243 262 272 143 195 263 262 261 259 258 260 264 272 278 282 285 286 283
137 126 138 164 201 204 202 191 163 155 180 80 40 228 193 207 209 190 194 202 192 180 170 221 177 157 144 92 94 133 169 174 258 311 86 144 217 175 168 181 186 175 181 165 144 149 177 209 136 113 309 296 296 305 315 306 222 208 196 178 172 140 136 151 119 106 250 226 158 171 239 267 281 294 304 292 279 275 274 275 275 273 277 283 287 289 287 282
149 130 310 348 212 199 191 192 154 137 150 146 63 249 184 168 227 201 186 189 198 189 170 167 151 124 77 94 125 236 250 307 27 102 156 207 256 243 179 189 186 166 157 144 142 136 104 256 208 190 209 229 246 259 292 40 280 262 246 205 195 182 160 132 108 172 205 180 188 224 239 271 286 290 297 297 292 290 290 290 288 286 287 289 290 290 286 282
173 214 223 41 256 188 153 176 164 141 157 169 177 209 186 199 293 210 210 221 204 188 178 176 172 166 176 165 164 228 242 0 31 165 182 196 233 339 172 185 172 163 158 148 157 124 83 278 242 211 229 244 257 270 296 346 277 265 259 228 204 192 165 155 196 210 152 111 263 247 221 249 278 286 294 296 295 295 293 294 294 294 294 292 291 289 284 281
199 221 201 171 220 189 108 204 186 145 139 160 166 156 173 196 224 200 210 217 193 195 193 270 237 208 192 173 160 184 203 320 270 222 182 174 193 40 29 224 182 176 171 151 168 137 113 254 242 201 251 264 265 271 276 271 261 261 255 244 225 199 181 195 221 216 154 200 257 263 252 261 276 285 289 289 291 293 292 293 294 294 293 292 290 286 282 280
201 194 186 190 215 172 131 187 174 145 135 135 136 172 173 192 221 224 187 108 300 236 198 223 262 238 203 174 141 161 197 207 270 246 189 160 178 142 135 253 203 187 177 137 171 164 137 247 243 188 280 281 264 264 267 252 260 270 257 243 228 213 202 210 230 227 202 234 256 268 277 276 275 278 280 283 285 287 288 290 291 291 291 291 288 283 280 281
232 222 185 174 165 103 109 137 145 140 137 119 217 225 183 186 214 230 177 159 195 234 181 209 256 236 192 167 153 186 216 193 195 258 188 152 174 193 191 203 168 158 173 146 144 180 163 258 267 112 305 288 274 294 291 237 248 272 274 266 239 221 220 222 237 236 223 245 257 266 277 276 271 269 270 275 281 284 286 287 287 288 290 289 285 283 282 283
235 240 218 162 129 99 114 135 134 131 150 219 211 221 200 204 207 187 169 200 197 181 186 205 224 186 140 167 197 231 242 203 201 260 202 180 209 214 215 199 157 141 165 184 162 142 168 269 354 63 343 283 294 5 322 293 275 270 277 277 252 211 212 218 225 207 200 233 259 275 280 271 271 272 265 268 275 281 284 286 288 290 290 287 283 284 285 285
234 240 236 191 138 169 167 142 114 132 222 218 199 197 211 232 201 169 164 260 212 192 213 212 190 137 117 207 228 242 243 203 219 281 219 219 240 227 224 198 170 156 161 167 162 162 152 153 32 60 314 271 307 340 316 314 318 286 264 250 213 198 219 235 243 219 202 212 257 265 257 264 281 294 287 280 280 280 283 287 291 292 292 290 286 285 286 286
Height
1555 1555 1555 1557 1557 1557 1556 1556 1556 1556 1557 1557 1558 1558 1559 1559 1559 1559 1559 1559 1559 1559 1559 1559 1559 1559 1559 1558 1558 1558 1558 1558 1557 1554 1553 1557 1560 1559 1558 1557 1556 1556 1555 1555 1555 1555 1554 1553 1553 1552 1551 1551 1552 1552 1553 1553 1553 1553 1561 1569 1574 1579 1578 1576 1577 1577 1578 1580 1581 1582 1580 1581 1586 1586 1585 1587 1586 1585 1586 1586 1586 1587 1587 1588 1589 1590 1591 1591
1556 1556 1557 1558 1558 1558 1557 1557 1558 1558 1558 1558 1559 1559 1560 1560 1560 1560 1560 1560 1560 1560 1560 1560 1560 1560 1560 1559 1559 1559 1559 1560 1557 1554 1556 1560 1560 1559 1558 1557 1557 1556 1556 1555 1555 1555 1554 1553 1552 1552 1551 1551 1553 1554 1554 1555 1555 1557 1566 1571 1575 1578 1576 1574 1575 1576 1577 1578 1579 1580 1580 1580 1583 1585 1584 1586 1588 1586 1586 1588 1588 1587 1587 1588 1588 1589 1590 1590
1557 1557 1559 1559 1559 1559 1558 1558 1558 1558 1559 1559 1560 1560 1561 1561 1561 1561 1561 1561 1561 1561 1561 1561 1561 1560 1560 1560 1560 1559 1560 1560 1557 1556 1560 1561 1560 1559 1558 1557 1557 1556 1556 1555 1555 1554 1553 1553 1553 1552 1551 1552 1555 1555 1555 1556 1558 1560 1565 1572 1576 1576 1575 1575 1575 1575 1576 1577 1578 1579 1580 1580 1581 1583 1583 1584 1587 1586 1585 1586 1587 1586 1586 1587 1587 1588 1589 1589
1558 1559 1559 1560 1560 1560 1559 1559 1559 1559 1560 1560 1561 1561 1562 1562 1561 1561 1561 1561 1562 1562 1562 1562 1561 1561 1561 1560 1560 1560 1560 1559 1559 1561 1562 1561 1560 1559 1558 1558 1557 1557 1556 1556 1555 1554 1553 1553 1553 1552 1552 1555 1557 1557 1557 1559 1560 1562 1565 1571 1574 1574 1575 1576 1575 1575 1576 1576 1577 1578 1579 1580 1581 1581 1581 1582 1584 1586 1585 1583 1584 1585 1585 1586 1587 1588 1588 1588
1559 1560 1560 1561 1560 1560 1560 1560 1560 1560 1561 1561 1562 1562 1562 1562 1562 1562 1561 1561 1561 1562 1562 1562 1562 1561 1560 1560 1560 1560 1560 1562 1565 1565 1563 1561 1561 1560 1559 1558 1557 1557 1557 1556 1555 1555 1554 1554 1553 1553 1554 1557 1559 1559 1561 1562 1561 1565 1569 1569 1572 1573 1574 1576 1576 1576 1576 1576 1576 1577 1578 1579 1581 1581 1581 1580 1580 1582 1582 1582 1583 1584 1585 1586 1587 1587 1588 1587
1560 1560 1561 1561 1561 1561 1561 1561 1562 1561 1562 1562 1563 1563 1563 1563 1563 1562 1562 1561 1561 1563 1563 1564 1563 1561 1560 1559 1560 1560 1561 1566 1568 1565 1564 1563 1562 1561 1560 1559 1557 1557 1556 1556 1555 1555 1555 1554 1553 1554 1557 1560 1562 1562 1564 1564 1562 1567 1572 1572 1572 1572 1573 1575 1576 1575 1576 1576 1576 1577 1578 1579 1579 1580 1581 1580 1579 1579 1580 1581 1582 1583 1584 1584 1585 1586 1586 1586
1560 1561 1561 1562 1562 1562 1562 1563 1563 1562 1563 1563 1563 1564 1563 1563 1564 1563 1563 1562 1563 1563 1564 1565 1564 1562 1561 1561 1561 1561 1562 1566 1568 1566 1564 1563 1563 1562 1561 1560 1558 1557 1556 1556 1555 1555 1555 1554 1555 1557 1559 1562 1563 1564 1564 1565 1564 1567 1572 1573 1573 1573 1573 1575 1575 1575 1576 1575 1575 1576 1577 1578 1578 1579 1580 1580 1579 1579 1580 1581 1582 1582 1583 1583 1584 1585 1584 1584
1561 1562 1562 1563 1563 1563 1563 1563 1564 1564 1564 1564 1564 1564 1564 1564 1564 1564 1564 1564 1565 1565 1565 1565 1564 1564 1564 1564 1563 1561 1563 1567 1567 1566 1565 1564 1564 1563 1562 1561 1559 1557 1556 1556 1556 1555 1555 1556 1557 1558 1560 1563 1564 1565 1565 1566 1567 1569 1572 1573 1573 1574 1574 1575 1575 1575 1575 1575 1576 1576 1576 1577 1578 1578 1579 1580 1580 1580 1580 1581 1581 1581 1582 1582 1582 1583 1583 1582
1561 1562 1563 1563 1564 1564 1565 1565 1565 1565 1565 1566 1565 1565 1565 1565 1565 1565 1565 1566 1566 1566 1566 1565 1565 1565 1564 1565 1563 1562 1566 1569 1568 1567 1566 1566 1565 1564 1563 1561 1559 1558 1556 1556 1556 1556 1556 1557 1559 1559 1561 1564 1565 1566 1566 1566 1569 1570 1572 1573 1573 1574 1575 1575 1575 1575 1575 1575 1576 1576 1578 1578 1578 1579 1580 1581 1581 1580 1581 1581 1581 1581 1581 1581 1581 1581 1581 1580
1562 1563 1563 1564 1565 1565 1566 1566 1566 1566 1566 1567 1566 1566 1566 1566 1566 1566 1566 1567 1566 1566 1566 1565 1566 1565 1564 1564 1561 1564 1570 1570 1568 1568 1567 1567 1566 1565 1563 1561 1560 1559 1557 1557 1558 1558 1558 1559 1560 1560 1561 1563 1565 1566 1567 1567 1569 1571 1572 1573 1574 1575 1576 1575 1575 1576 1575 1575 1575 1576 1579 1579 1579 1580 1580 1581 1581 1580 1581 1581 1580 1580 1580 1580 1580 1580 1580 1579
1563 1564 1564 1565 1565 1566 1566 1567 1566 1567 1567 1567 1567 1567 1567 1567 1567 1567 1567 1567 1567 1567 1566 1566 1566 1565 1565 1563 1560 1566 1572 1570 1569 1568 1568 1568 1567 1565 1564 1563 1562 1560 1559 1559 1559 1560 1560 1561 1561 1561 1562 1565 1566 1567 1568 1568 1570 1571 1572 1574 1575 1575 1576 1576 1576 1576 1575 1575 1575 1575 1579 1581 1580 1579 1577 1577 1579 1580 1580 1580 1579 1579 1579 1579 1579 1579 1578 1577
1564 1564 1565 1566 1566 1567 1567 1567 1567 1567 1568 1568 1568 1568 1568 1568 1568 1568 1568 1568 1568 1567 1567 1567 1566 1566 1565 1563 1563 1569 1572 1570 1570 1569 1569 1569 1567 1566 1565 1564 1563 1563 1562 1561 1561 1562 1562 1562 1562 1562 1564 1567 1568 1569 1570 1570 1571 1572 1572 1574 1576 1576 1576 1576 1576 1576 1575 1575 1576 1575 1577 1579 1579 1577 1574 1575 1577 1578 1579 1578 1578 1578 1578 1578 1578 1577 1577 1576
1565 1565 1565 1566 1566 1567 1567 1568 1568 1568 1568 1568 1569 1569 1569 1569 1569 1569 1569 1568 1568 1568 1568 1566 1565 1565 1565 1565 1569 1571 1571 1571 1571 1570 1570 1569 1568 1567 1566 1566 1565 1565 1564 1563 1563 1563 1563 1563 1563 1563 1566 1567 1569 1570 1570 1571 1571 1572 1574 1575 1577 1577 1576 1575 1576 1576 1575 1575 1575 1575 1573 1572 1574 1575 1573 1575 1575 1576 1577 1577 1576 1577 1577 1576 1576 1576 1575 1574
1565 1565 1566 1566 1567 1567 1568 1568 1568 1568 1569 1569 1569 1569 1569 1569 1569 1569 1569 1569 1568 1568 1568 1567 1566 1565 1565 1569 1572 1572 1572 1572 1571 1571 1570 1569 1569 1568 1567 1567 1567 1567 1566 1565 1565 1565 1564 1564 1564 1564 1567 1568 1570 1570 1571 1573 1573 1574 1576 1577 1582 1580 1575 1575 1575 1575 1575 1576 1575 1576 1574 1569 1572 1575 1574 1574 1574 1575 1575 1574 1575 1575 1575 1575 1574 1574 1573 1572
1565 1565 1566 1566 1567 1568 1568 1569 1569 1569 1569 1569 1569 1569 1570 1570 1570 1570 1570 1569 1569 1569 1569 1567 1567 1566 1566 1570 1573 1573 1573 1572 1571 1572 1571 1570 1570 1569 1569 1569 1568 1568 1568 1567 1567 1567 1567 1565 1564 1566 1569 1570 1571 1572 1574 1576 1577 1579 1576 1576 1584 1583 1578 1577 1575 1575 1576 1576 1575 1576 1574 1568 1570 1573 1572 1573 1573 1573 1573 1573 1573 1573 1573 1573 1572 1572 1571 1570
1565 1565 1566 1567 1568 1568 1569 1569 1569 1569 1569 1570 1570 1570 1570 1570 1571 1571 1570 1570 1569 1569 1569 1568 1568 1566 1568 1572 1573 1573 1573 1572 1572 1572 1571 1571 1571 1571 1570 1570 1570 1569 1569 1569 1568 1568 1568 1566 1566 1569 1572 1572 1574 1576 1576 1576 1578 1583 1582 1579 1582 1583 1581 1578 1575 1575 1576 1575 1575 1575 1574 1568 1568 1570 1571 1572 1572 1572 1572 1571 1571 1571 1572 1572 1571 1570 1569 1569
1566 1566 1567 1568 1569 1569 1569 1569 1570 1570 1570 1570 1570 1570 1571 1571 1571 1571 1571 1570 1570 1570 1569 1569 1568 1567 1569 1573 1574 1573 1573 1572 1572 1572 1572 1572 1571 1571 1571 1570 1570 1570 1570 1569 1568 1569 1568 1567 1569 1573 1576 1577 1580 1577 1574 1576 1578 1582 1586 1584 1584 1585 1585 1580 1576 1575 1575 1575 1575 1574 1573 1568 1567 1569 1569 1570 1570 1570 1570 1569 1570 1570 1570 1570 1569 1569 1568 1567
1566 1566 1567 1568 1569 1569 1569 1569 1570 1570 1571 1570 1570 1570 1571 1571 1572 1571 1572 1571 1571 1570 1569 1569 1568 1568 1572 1574 1574 1574 1573 1573 1573 1572 1572 1572 1572 1571 1571 1570 1570 1570 1570 1569 1569 1569 1568 1570 1572 1575 1578 1581 1583 1581 1578 1582 1585 1584 1585 1584 1586 1588 1587 1584 1579 1576 1575 1576 1575 1573 1570 1567 1566 1569 1569 1568 1569 1569 1567 1568 1568 1568 1568 1568 1567 1567 1566 1565
1566 1567 1568 1569 1569 1569 1570 1570 1570 1571 1571 1571 1571 1571 1571 1571 1572 1572 1572 1572 1571 1571 1572 1572 1569 1571 1575 1575 1575 1575 1574 1573 1573 1572 1572 1572 1571 1571 1571 1570 1570 1570 1570 1570 1571 1571 1571 1573 1576 1578 1583 1585 1586 1587 1586 1588 1588 1586 1588 1588 1588 1587 1586 1583 1580 1577 1577 1575 1572 1570 1568 1565 1566 1567 1567 1567 1567 1567 1566 1567 1567 1566 1566 1566 1565 1565 1564 1564
1567 1568 1569 1569 1570 1570 1570 1571 1571 1572 1572 1571 1571 1572 1572 1572 1572 1573 1573 1572 1573 1574 1575 1575 1573 1573 1575 1575 1575 1575 1574 1573 1573 1572 1571 1571 1571 1571 1571 1571 1571 1570 1571 1574 1574 1575 1574 1577 1583 1586 1588 1588 1587 1589 1589 1589 1590 1589 1589 1589 1588 1587 1584 1581 1578 1577 1576 1575 1570 1568 1568 1565 1564 1564 1564 1565 1566 1566 1565 1565 1565 1564 1564 1564 1563 1563 1562 1562
1568 1569 1570 1570 1571 1571 1571 1572 1572 1572 1572 1571 1571 1572 1572 1571 1572 1573 1573 1575 1577 1577 1577 1576 1575 1575 1575 1576 1575 1574 1574 1574 1573 1572 1571 1571 1571 1571 1571 1571 1571 1572 1575 1576 1576 1577 1575 1579 1588 1590 1589 1589 1589 1590 1589 1588 1590 1589 1588 1588 1586 1585 1581 1578 1578 1576 1576 1577 1571 1567 1568 1563 1560 1561 1561 1563 1564 1562 1561 1562 1562 1562 1562 1561 1561 1560 1560 1560
1569 1570 1571 1571 1572 1572 1572 1573 1573 1573 1572 1572 1572 1571 1571 1571 1571 1572 1572 1575 1578 1578 1577 1577 1577 1576 1576 1576 1575 1575 1574 1573 1573 1572 1571 1571 1570 1570 1572 1572 1574 1576 1578 1577 1576 1578 1580 1584 1588 1588 1588 1589 1589 1590 1589 1588 1589 1588 1588 1588 1586 1585 1582 1576 1575 1576 1576 1577 1570 1565 1566 1561 1557 1559 1559 1560 1560 1558 1558 1559 1559 1559 1559 1559 1558 1558 1558 1558
1570 1570 1571 1572 1573 1573 1573 1573 1573 1573 1573 1573 1573 1572 1572 1572 1572 1573 1572 1574 1578 1578 1578 1578 1577 1577 1577 1576 1576 1575 1574 1573 1574 1572 1572 1571 1570 1571 1572 1574 1577 1579 1579 1578 1576 1576 1580 1586 1587 1587 1588 1587 1588 1589 1590 1589 1588 1589 1589 1588 1586 1586 1586 1580 1575 1574 1574 1575 1571 1567 1564 1557 1554 1557 1557 1557 1557 1557 1558 1557 1557 1557 1556 1556 1556 1556 1556 1555
1571 1571 1572 1573 1574 1574 1574 1574 1573 1574 1573 1573 1573 1573 1573 1573 1573 1573 1573 1575 1578 1578 1578 1578 1578 1577 1577 1577 1577 1576 1574 1575 1575 1574 1573 1571 1571 1573 1574 1576 1579 1581 1583 1582 1579 1578 1582 1586 1586 1587 1587 1586 1587 1588 1590 1589 1587 1589 1588 1586 1584 1583 1586 1584 1579 1577 1573 1572 1571 1568 1561 1552 1553 1557 1554 1556 1557 1556 1556 1556 1555 1555 1554 1554 1554 1553 1553 1551
1572 1572 1573 1573 1574 1574 1574 1574 1574 1574 1573 1573 1574 1573 1573 1573 1573 1574 1574 1576 1578 1579 1578 1578 1578 1578 1577 1577 1577 1576 1576 1576 1576 1575 1574 1573 1573 1574 1575 1577 1578 1582 1586 1584 1582 1583 1585 1586 1585 1586 1587 1588 1587 1587 1590 1590 1588 1587 1584 1583 1583 1582 1583 1583 1583 1582 1574 1567 1568 1570 1562 1549 1552 1558 1553 1554 1556 1554 1554 1554 1552 1551 1552 1552 1550 1550 1550 1549
1572 1573 1573 1574 1574 1574 1575 1574 1575 1574 1574 1574 1574 1574 1573 1573 1574 1573 1574 1578 1580 1579 1578 1578 1579 1578 1577 1577 1577 1576 1577 1577 1577 1576 1575 1575 1574 1574 1576 1578 1579 1582 1585 1585 1583 1584 1586 1586 1586 1586 1587 1588 1586 1586 1589 1590 1589 1585 1579 1580 1582 1581 1583 1582 1583 1584 1576 1568 1568 1572 1569 1558 1552 1550 1549 1553 1555 1553 1553 1552 1549 1549 1549 1548 1547 1547 1546 1546
1572 1573 1573 1574 1574 1574 1575 1575 1575 1574 1574 1574 1573 1573 1573 1573 1574 1573 1575 1583 1583 1579 1579 1579 1579 1579 1578 1578 1577 1576 1577 1577 1577 1577 1576 1575 1575 1575 1576 1579 1580 1581 1583 1584 1581 1583 1585 1585 1586 1586 1587 1587 1585 1585 1587 1589 1588 1580 1575 1579 1580 1579 1581 1579 1582 1584 1580 1574 1571 1571 1573 1570 1557 1546 1550 1555 1553 1553 1552 1549 1547 1545 1545 1544 1544 1544 1543 1543
1573 1573 1573 1574 1574 1574 1575 1575 1575 1574 1574 1574 1573 1574 1573 1573 1574 1573 1578 1586 1584 1579 1579 1579 1579 1579 1578 1578 1578 1577 1578 1578 1578 1578 1577 1576 1576 1575 1576 1579 1581 1581 1583 1582 1578 1582 1586 1585 1585 1586 1586 1586 1584 1585 1586 1587 1586 1578 1576 1578 1577 1578 1577 1578 1581 1581 1582 1577 1569 1569 1573 1571 1557 1544 1552 1557 1552 1551 1548 1544 1543 1540 1540 1540 1540 1541 1540 1539
1573 1573 1573 1574 1574 1574 1575 1574 1574 1574 1574 1574 1573 1573 1573 1574 1573 1574 1581 1586 1581 1579 1580 1579 1579 1579 1579 1579 1579 1578 1578 1578 1578 1578 1577 1577 1576 1576 1577 1579 1580 1581 1582 1581 1579 1582 1585 1584 1585 1585 1585 1584 1582 1583 1584 1584 1583 1578 1577 1575 1574 1577 1576 1577 1579 1576 1580 1575 1564 1567 1572 1569 1555 1540 1546 1554 1548 1545 1540 1537 1538 1535 1536 1536 1536 1537 1536 1536
1573 1573 1574 1574 1574 1574 1574 1574 1574 1574 1574 1574 1573 1573 1573 1573 1574 1580 1587 1584 1579 1580 1579 1578 1579 1580 1580 1580 1580 1580 1579 1579 1579 1579 1578 1578 1577 1577 1578 1579 1580 1581 1582 1583 1582 1584 1585 1585 1585 1585 1584 1583 1582 1582 1582 1582 1581 1578 1579 1576 1573 1575 1575 1576 1579 1577 1576 1566 1560 1568 1570 1571 1562 1540 1537 1542 1535 1533 1532 1532 1534 1532 1532 1532 1532 1534 1533 1533
1573 1573 1574 1573 1574 1574 1573 1574 1574 1573 1574 1573 1573 1573 1573 1574 1578 1584 1587 1582 1579 1580 1579 1579 1582 1581 1581 1582 1581 1581 1581 1580 1580 1579 1579 1580 1580 1578 1578 1579 1580 1581 1581 1581 1582 1585 1586 1584 1584 1584 1583 1583 1582 1581 1580 1581 1582 1579 1580 1580 1571 1570 1572 1572 1574 1577 1568 1552 1557 1572 1571 1573 1567 1538 1528 1533 1529 1529 1530 1528 1529 1529 1529 1529 1529 1530 1530 1530
1573 1573 1573 1573 1573 1573 1573 1573 1572 1573 1573 1572 1573 1573 1573 1578 1581 1581 1581 1579 1579 1580 1579 1581 1582 1582 1583 1583 1583 1584 1583 1582 1582 1582 1583 1585 1586 1586 1585 1584 1584 1580 1577 1581 1582 1581 1583 1584 1585 1583 1582 1583 1581 1580 1580 1580 1582 1579 1580 1581 1573 1570 1571 1565 1568 1574 1564 1550 1559 1573 1569 1568 1560 1534 1524 1527 1526 1527 1527 1524 1526 1526 1526 1526 1527 1527 1527 1527
1572 1572 1572 1573 1572 1572 1572 1572 1572 1572 1571 1572 1573 1572 1575 1581 1581 1579 1581 1579 1577 1580 1581 1582 1583 1584 1584 1582 1583 1586 1585 1583 1583 1583 1585 1587 1588 1590 1591 1591 1591 1583 1579 1586 1588 1580 1577 1581 1585 1582 1581 1582 1581 1580 1579 1579 1581 1581 1582 1582 1577 1577 1575 1568 1572 1575 1565 1557 1563 1573 1571 1560 1545 1528 1523 1524 1521 1522 1523 1522 1523 1523 1524 1524 1523 1524 1524 1523
1571 1572 1572 1572 1572 1571 1571 1571 1571 1571 1571 1572 1572 1573 1578 1581 1579 1580 1581 1579 1580 1583 1583 1584 1584 1584 1584 1583 1585 1586 1584 1584 1585 1585 1585 1586 1586 1587 1589 1589 1590 1589 1586 1589 1592 1588 1580 1576 1578 1580 1579 1581 1581 1581 1581 1582 1584 1584 1587 1585 1580 1583 1581 1576 1577 1574 1569 1568 1568 1569 1564 1549 1533 1521 1520 1521 1520 1521 1520 1521 1522 1521 1522 1522 1521 1522 1520 1519
1571 1571 1571 1571 1570 1570 1570 1570 1570 1570 1571 1571 1572 1576 1580 1577 1575 1577 1577 1578 1583 1583 1583 1585 1585 1583 1584 1585 1586 1587 1584 1583 1585 1586 1585 1586 1586 1585 1588 1588 1589 1591 1589 1585 1590 1594 1586 1576 1576 1579 1579 1581 1581 1582 1583 1583 1584 1586 1588 1585 1582 1585 1586 1584 1585 1583 1587 1588 1578 1567 1553 1540 1531 1520 1519 1523 1520 1520 1520 1519 1521 1520 1519 1520 1519 1518 1517 1516
1570 1570 1570 1570 1569 1569 1569 1569 1569 1570 1570 1571 1573 1577 1577 1573 1573 1576 1575 1577 1581 1581 1582 1584 1583 1582 1582 1583 1585 1587 1586 1585 1585 1586 1586 1588 1588 1588 1589 1589 1590 1592 1588 1585 1589 1591 1582 1575 1578 1581 1579 1582 1582 1581 1584 1582 1581 1585 1586 1583 1586 1590 1588 1588 1591 1595 1602 1593 1575 1563 1547 1537 1533 1519 1517 1525 1521 1519 1521 1519 1519 1518 1517 1518 1516 1514 1514 1512
1569 1569 1569 1569 1569 1569 1569 1569 1569 1570 1570 1571 1573 1575 1576 1575 1576 1578 1578 1578 1579 1580 1581 1579 1578 1579 1579 1579 1582 1584 1585 1585 1585 1584 1585 1587 1586 1586 1590 1590 1589 1590 1589 1588 1589 1590 1585 1575 1577 1582 1580 1581 1583 1582 1584 1584 1582 1583 1583 1583 1588 1591 1591 1594 1593 1593 1599 1589 1572 1565 1553 1544 1540 1524 1515 1522 1520 1517 1518 1517 1517 1516 1515 1515 1512 1510 1510 1509
1569 1569 1568 1568 1568 1568 1569 1568 1569 1570 1570 1572 1573 1575 1577 1577 1577 1578 1579 1579 1579 1581 1580 1576 1576 1579 1578 1577 1578 1583 1585 1583 1583 1584 1583 1585 1583 1583 1587 1588 1589 1590 1590 1589 1587 1591 1592 1578 1575 1584 1582 1580 1584 1583 1581 1584 1584 1583 1582 1585 1587 1585 1587 1594 1592 1587 1592 1589 1574 1565 1558 1549 1541 1526 1512 1512 1513 1512 1513 1514 1515 1513 1511 1510 1507 1506 1506 1505
1569 1568 1568 1568 1568 1568 1568 1568 1569 1570 1570 1573 1574 1574 1576 1577 1577 1578 1579 1579 1579 1579 1579 1577 1577 1580 1580 1579 1578 1582 1584 1581 1582 1583 1580 1581 1581 1581 1585 1586 1588 1589 1589 1590 1588 1590 1593 1583 1574 1581 1585 1582 1583 1582 1579 1581 1585 1585 1584 1586 1587 1587 1588 1592 1595 1594 1593 1591 1581 1567 1554 1537 1525 1519 1510 1506 1508 1508 1509 1511 1510 1508 1506 1505 1503 1502 1502 1501
1568 1568 1567 1568 1567 1568 1568 1568 1569 1570 1571 1574 1575 1575 1577 1578 1578 1578 1578 1579 1579 1578 1578 1579 1579 1578 1579 1581 1581 1581 1584 1583 1582 1581 1579 1580 1580 1580 1584 1585 1586 1589 1588 1590 1590 1589 1594 1590 1577 1578 1585 1582 1577 1576 1574 1574 1580 1583 1583 1586 1586 1588 1593 1592 1596 1599 1593 1591 1591 1584 1561 1527 1508 1510 1509 1505 1505 1506 1507 1507 1505 1503 1502 1500 1500 1498 1497 1496
1567 1567 1567 1567 1567 1568 1568 1568 1570 1572 1573 1575 1577 1577 1578 1577 1577 1578 1579 1579 1580 1579 1579 1580 1579 1578 1578 1580 1581 1581 1583 1583 1582 1581 1579 1580 1578 1577 1582 1584 1584 1587 1588 1588 1590 1588 1590 1591 1584 1580 1578 1572 1569 1574 1575 1573 1576 1577 1577 1581 1581 1583 1589 1588 1591 1598 1598 1593 1589 1590 1574 1530 1501 1504 1506 1503 1505 1504 1504 1504 1501 1500 1498 1496 1496 1494 1493 1492
1567 1567 1567 1567 1567 1567 1567 1569 1572 1574 1574 1574 1576 1577 1578 1577 1577 1579 1578 1579 1579 1579 1580 1580 1579 1580 1579 1578 1580 1581 1581 1580 1581 1580 1577 1578 1579 1578 1581 1584 1584 1585 1586 1587 1589 1589 1589 1592 1590 1582 1573 1569 1571 1575 1577 1575 1576 1577 1577 1579 1582 1583 1583 1582 1583 1588 1595 1596 1592 1598 1587 1534 1495 1501 1505 1502 1504 1502 1501 1501 1498 1496 1495 1493 1492 1490 1489 1487
1566 1566 1566 1566 1567 1567 1567 1570 1573 1575 1576 1576 1577 1577 1577 1577 1578 1578 1579 1579 1579 1579 1579 1579 1578 1578 1577 1578 1580 1580 1580 1578 1577 1578 1577 1578 1581 1582 1583 1583 1584 1584 1586 1587 1589 1589 1589 1590 1588 1578 1569 1571 1577 1578 1578 1577 1578 1577 1576 1579 1581 1580 1578 1579 1583 1585 1588 1589 1588 1597 1586 1530 1492 1501 1505 1501 1503 1501 1498 1499 1496 1494 1491 1489 1489 1486 1485 1483
1565 1566 1566 1566 1566 1566 1567 1569 1570 1573 1576 1578 1577 1577 1577 1578 1578 1578 1578 1578 1578 1578 1578 1577 1578 1577 1577 1579 1579 1579 1579 1576 1575 1577 1579 1579 1581 1582 1583 1583 1584 1585 1585 1585 1586 1586 1585 1586 1585 1575 1565 1564 1567 1570 1572 1575 1577 1575 1574 1578 1578 1579 1583 1584 1588 1592 1587 1577 1578 1585 1570 1524 1495 1500 1503 1500 1502 1499 1496 1496 1493 1491 1488 1485 1485 1483 1481 1480
1565 1565 1565 1565 1566 1566 1567 1568 1568 1571 1576 1578 1577 1577 1577 1577 1577 1577 1577 1577 1577 1578 1577 1577 1577 1577 1578 1579 1578 1579 1580 1576 1575 1578 1579 1580 1582 1583 1584 1583 1584 1585 1585 1585 1586 1585 1585 1586 1584 1576 1569 1565 1560 1557 1558 1565 1571 1572 1572 1576 1575 1577 1580 1578 1583 1591 1582 1574 1578 1573 1547 1511 1493 1497 1500 1499 1500 1496 1492 1492 1490 1488 1485 1482 1481 1479 1477 1476
1565 1565 1565 1565 1566 1566 1567 1568 1568 1570 1574 1576 1575 1576 1577 1576 1576 1577 1576 1576 1576 1577 1576 1576 1577 1577 1578 1578 1577 1578 1580 1579 1578 1578 1578 1579 1582 1583 1584 1584 1585 1585 1585 1586 1586 1586 1589 1589 1584 1577 1572 1567 1559 1555 1558 1564 1567 1566 1567 1570 1572 1574 1575 1575 1580 1580 1572 1574 1574 1554 1534 1517 1502 1498 1498 1495 1495 1493 1489 1487 1486 1484 1481 1478 1477 1475 1473 1472
1564 1565 1566 1565 1565 1566 1566 1568 1568 1568 1571 1572 1570 1573 1575 1575 1576 1576 1576 1576 1576 1576 1576 1576 1576 1575 1575 1576 1576 1575 1578 1580 1579 1578 1578 1580 1582 1584 1584 1584 1585 1585 1585 1586 1585 1587 1588 1584 1582 1581 1574 1567 1564 1561 1564 1568 1566 1561 1562 1563 1565 1570 1575 1575 1570 1562 1561 1567 1552 1528 1529 1530 1509 1497 1497 1492 1489 1489 1485 1484 1482 1479 1477 1474 1472 1471 1469 1467
1564 1565 1566 1566 1565 1566 1566 1567 1568 1569 1570 1571 1571 1573 1574 1575 1575 1574 1574 1576 1576 1576 1575 1575 1574 1574 1574 1574 1573 1573 1577 1579 1577 1577 1579 1580 1583 1584 1584 1585 1586 1585 1585 1586 1585 1587 1587 1581 1581 1582 1574 1569 1572 1568 1565 1568 1566 1561 1560 1560 1561 1566 1570 1567 1558 1553 1557 1556 1533 1515 1524 1526 1507 1497 1496 1491 1487 1486 1481 1480 1478 1475 1472 1470 1468 1467 1464 1462
1565 1565 1566 1566 1566 1567 1567 1567 1569 1569 1570 1571 1572 1572 1573 1573 1572 1572 1573 1575 1575 1575 1575 1572 1571 1573 1574 1575 1574 1573 1574 1572 1571 1574 1577 1579 1581 1582 1582 1582 1583 1585 1585 1585 1585 1586 1585 1581 1582 1584 1575 1568 1568 1566 1564 1567 1565 1559 1555 1554 1556 1559 1562 1559 1552 1551 1554 1548 1532 1523 1527 1523 1507 1497 1494 1488 1485 1483 1478 1476 1475 1471 1468 1466 1464 1463 1459 1457
1564 1564 1565 1566 1566 1567 1568 1568 1569 1569 1571 1572 1570 1570 1572 1571 1569 1570 1572 1572 1571 1573 1574 1571 1570 1571 1573 1575 1574 1572 1572 1570 1569 1572 1574 1575 1577 1578 1577 1575 1578 1584 1585 1585 1587 1587 1584 1580 1582 1584 1575 1563 1560 1562 1562 1563 1563 1556 1547 1545 1549 1553 1555 1556 1553 1552 1554 1548 1535 1532 1535 1524 1503 1493 1491 1487 1482 1479 1476 1472 1470 1467 1464 1462 1460 1457 1454 1452
1564 1564 1564 1565 1566 1567 1568 1568 1570 1570 1570 1571 1569 1568 1569 1569 1568 1569 1569 1569 1569 1570 1571 1570 1569 1571 1573 1574 1573 1571 1571 1572 1571 1571 1572 1572 1572 1573 1572 1570 1574 1580 1583 1585 1586 1585 1585 1582 1581 1583 1574 1559 1558 1562 1559 1558 1558 1552 1541 1536 1540 1546 1545 1544 1546 1546 1544 1537 1531 1534 1533 1514 1492 1485 1487 1483 1479 1477 1472 1467 1465 1462 1459 1458 1455 1451 1449 1446
1563 1563 1564 1564 1565 1567 1568 1568 1570 1570 1567 1567 1566 1566 1566 1566 1567 1567 1566 1568 1569 1569 1569 1569 1569 1571 1571 1571 1571 1570 1570 1571 1571 1571 1571 1571 1570 1570 1570 1570 1571 1574 1579 1584 1584 1584 1586 1581 1579 1583 1572 1555 1558 1564 1560 1556 1545 1530 1523 1522 1525 1533 1534 1532 1533 1533 1529 1527 1525 1523 1513 1495 1484 1484 1483 1478 1475 1473 1468 1463 1461 1458 1454 1452 1450 1446 1443 1440